EUTELSAT 172B

Last updated on Tue Sep 22 2026 00:03:14 GMT+0000 (Coordinated Universal Time)

1 42741U 17029B 26264.32250212 -.00000009 00000+0 00000+0 0 9992 2 42741 0.0263 136.0191 0000222 290.6983 221.6059 1.00273051 34714
UTC large
Height (km)
Speed (km/s)
/
Latitude / Longitude
Inclination (degrees)
Orbital Period (minutes)
Azimuth
Elevation
Range (km)
Doppler Factor

Next 0 passes for location: London (51.5072 / 0.1276)

No passes found over London.
EUTELSAT 172B